Total_Precipitation_Accumulation
2.02 2.05 2.01 2.03 1.88 2.07 2.43 2.54 2.42 2.62 2.67 2.49 2.28 2.02 1.89 1.73 1.60 1.61 1.70 1.58 1.46 1.54 1.80 1.90 1.76 1.64 1.51 1.32 1.16 1.10 1.07 0.99 0.95 0.81 0.67 0.63 0.73 0.72 0.61 0.53 0.49 0.42 0.39
2.44 2.49 2.34 2.28 2.14 2.16 2.39 2.52 2.54 3.05 2.96 2.82 2.36 2.09 2.01 1.95 1.79 1.77 1.83 1.90 1.59 1.44 1.57 1.86 2.01 1.97 1.84 1.62 1.43 1.29 1.18 1.09 0.98 0.77 0.64 0.59 0.67 0.75 0.72 0.64 0.54 0.44 0.35
2.54 2.61 2.59 2.45 2.37 2.34 2.49 2.54 2.74 3.01 2.76 2.64 2.35 2.22 2.10 1.98 1.80 1.78 1.97 2.14 1.90 1.61 1.45 1.57 1.88 2.04 2.07 2.05 1.92 1.65 1.36 1.17 1.04 0.82 0.65 0.61 0.65 0.74 0.74 0.73 0.68 0.51 0.37
2.53 2.64 2.48 2.37 2.58 2.66 2.74 2.90 2.98 3.01 2.89 2.79 2.58 2.26 2.09 2.03 1.64 1.59 1.65 1.73 1.88 1.65 1.71 1.80 1.94 2.00 2.17 2.29 2.29 2.22 1.91 1.49 1.23 1.03 0.84 0.73 0.75 0.77 0.72 0.70 0.68 0.54 0.41
2.38 2.55 2.43 2.51 2.67 2.78 2.81 2.59 2.99 2.99 3.00 2.91 2.41 2.15 1.89 1.78 1.66 1.40 1.38 1.31 1.45 1.49 1.57 1.67 1.81 1.79 2.09 2.45 2.61 2.71 2.59 2.15 1.68 1.40 1.27 1.09 0.98 0.86 0.77 0.72 0.68 0.59 0.47
2.50 2.67 2.52 2.59 2.70 2.83 2.86 2.87 3.07 3.04 2.88 2.85 2.26 2.01 1.76 1.43 1.44 1.38 1.21 1.21 1.23 1.13 1.23 1.46 1.77 1.50 1.83 2.20 2.40 2.73 2.96 2.79 2.33 1.93 1.78 1.63 1.47 1.20 0.95 0.85 0.80 0.74 0.61
2.66 2.89 2.73 2.87 2.84 2.71 2.71 2.87 3.05 2.87 2.64 2.76 2.67 2.09 1.56 1.26 1.24 1.20 1.23 1.29 1.21 1.19 1.34 1.65 1.77 1.64 1.52 1.59 1.66 2.00 2.60 3.02 2.95 2.51 2.17 1.94 1.88 1.74 1.30 1.13 1.05 0.96 0.83
2.60 2.54 2.65 2.54 2.59 2.72 2.71 2.75 2.95 2.77 2.38 2.53 2.64 2.50 1.84 1.54 1.23 0.98 1.17 1.21 1.21 1.37 1.43 1.51 1.76 1.94 1.79 1.86 1.46 1.44 2.04 2.73 3.10 3.06 2.64 2.29 2.15 2.04 1.70 1.55 1.35 1.12 0.99
2.25 2.27 2.29 2.38 2.65 2.66 2.66 2.73 2.73 2.59 2.27 2.25 2.39 2.54 2.05 1.64 1.33 0.96 0.92 1.08 1.33 1.47 1.43 1.56 1.65 1.84 1.90 2.10 2.06 1.76 1.69 1.89 2.47 3.11 3.10 2.75 2.35 2.06 2.06 2.09 1.88 1.47 1.16
2.16 2.12 2.10 2.17 2.26 2.25 2.33 2.16 2.25 2.38 2.41 2.21 2.28 2.22 2.07 1.91 1.78 1.33 1.04 1.02 1.21 1.32 1.41 1.39 1.42 1.55 1.80 2.19 2.33 1.98 1.67 1.50 1.73 2.50 3.03 3.06 2.69 2.32 2.26 2.36 2.51 2.18 1.60
2.12 2.06 1.99 1.98 1.90 1.89 2.02 2.01 2.11 2.15 2.14 2.10 2.13 2.21 2.17 2.07 1.94 1.81 1.49 1.31 1.23 1.06 1.12 1.23 1.33 1.43 1.67 1.95 2.12 1.96 1.89 1.66 1.60 1.79 2.19 2.58 2.69 2.57 2.43 2.52 2.86 2.94 2.55
2.00 1.92 1.88 1.89 1.82 1.80 1.86 1.91 1.97 1.93 1.97 2.04 2.03 2.06 2.12 2.04 2.01 2.06 1.74 1.57 1.44 1.13 1.12 1.10 1.16 1.25 1.49 1.66 1.59 1.69 1.67 1.50 1.38 1.42 1.58 1.92 2.16 2.29 2.37 2.56 2.94 3.27 3.29
1.60 1.58 1.58 1.67 1.67 1.71 1.72 1.77 1.81 1.81 1.91 1.98 1.94 1.97 1.96 1.87 1.89 1.99 1.97 1.68 1.53 1.27 1.30 1.24 1.14 1.20 1.20 1.48 1.48 1.34 1.17 1.09 1.05 1.07 1.08 1.23 1.47 1.66 1.85 2.10 2.46 2.83 3.10
1.29 1.41 1.55 1.61 1.64 1.67 1.64 1.75 1.65 1.64 1.78 1.85 1.85 2.09 1.97 1.76 1.82 1.94 2.07 2.08 1.84 1.53 1.51 1.37 1.21 1.16 1.18 1.30 1.28 1.17 1.05 0.95 0.89 0.84 0.81 0.82 0.90 1.03 1.19 1.42 1.70 1.93 2.13
1.30 1.38 1.47 1.59 1.63 1.73 1.78 1.80 1.68 1.75 1.94 1.90 1.96 2.10 2.00 1.88 1.92 1.91 2.07 2.25 2.19 1.88 1.59 1.43 1.31 1.15 1.15 1.17 1.21 1.18 1.13 1.00 0.85 0.78 0.73 0.70 0.70 0.72 0.81 0.96 1.13 1.30 1.40
1.39 1.35 1.38 1.42 1.43 1.48 1.60 1.66 1.62 1.75 1.95 1.91 1.88 1.94 1.93 1.92 2.09 2.04 2.09 2.21 2.29 2.17 1.71 1.50 1.41 1.17 1.29 1.07 1.11 1.11 1.11 1.04 0.84 0.73 0.69 0.67 0.66 0.67 0.68 0.72 0.81 0.95 1.10
1.36 1.32 1.28 1.27 1.27 1.23 1.29 1.42 1.46 1.63 1.66 1.64 1.56 1.59 1.58 1.75 1.92 1.89 1.98 2.05 2.16 2.22 1.84 1.63 1.72 1.59 1.63 1.44 1.29 1.18 1.02 1.02 0.91 0.82 0.74 0.67 0.64 0.64 0.67 0.67 0.66 0.72 0.83
1.19 1.24 1.27 1.19 1.13 1.17 1.23 1.26 1.34 1.49 1.55 1.52 1.49 1.53 1.44 1.54 1.67 1.70 1.84 1.90 2.02 2.22 2.01 1.86 1.94 1.97 1.92 1.75 1.63 1.45 1.11 0.93 0.95 0.97 0.82 0.71 0.65 0.63 0.68 0.68 0.64 0.62 0.65
1.10 1.16 1.19 1.14 1.09 1.16 1.28 1.37 1.48 1.50 1.39 1.36 1.36 1.33 1.30 1.41 1.44 1.53 1.66 1.66 1.74 2.04 2.12 1.96 1.97 2.26 2.18 1.98 2.01 1.70 1.46 1.37 1.01 0.97 0.86 0.71 0.65 0.62 0.62 0.69 0.70 0.65 0.62
1.14 1.18 1.20 1.25 1.30 1.31 1.29 1.33 1.38 1.46 1.44 1.31 1.18 1.08 1.07 1.20 1.25 1.36 1.43 1.54 1.66 1.83 2.02 2.04 2.00 2.18 2.25 2.13 2.28 2.03 1.77 1.61 1.33 1.06 1.00 0.79 0.70 0.68 0.66 0.66 0.69 0.71 0.72
1.08 1.18 1.33 1.38 1.41 1.34 1.19 1.25 1.33 1.28 1.32 1.27 1.12 0.96 0.86 0.87 0.93 1.07 1.08 1.27 1.50 1.67 1.75 1.89 1.95 2.06 2.27 2.32 2.16 2.10 1.95 1.79 1.67 1.53 1.50 1.11 0.84 0.74 0.71 0.69 0.71 0.79 0.86
1.11 1.18 1.19 1.25 1.27 1.08 1.04 1.03 1.07 1.11 1.15 1.14 1.14 1.11 0.95 0.84 0.80 0.82 0.86 0.93 1.06 1.20 1.40 1.63 1.72 1.83 2.05 2.28 2.27 2.29 2.20 2.00 1.84 1.70 1.84 1.81 1.47 1.20 0.99 0.77 0.76 0.81 0.91
1.14 1.13 1.08 1.08 1.10 1.18 1.07 0.94 0.91 0.95 1.06 1.11 1.15 1.13 0.91 0.78 0.83 0.81 0.84 0.84 0.87 0.86 0.93 1.16 1.32 1.38 1.61 1.93 2.26 2.33 2.41 2.27 2.05 1.99 2.12 2.18 2.23 1.99 1.46 1.12 1.05 0.91 0.94
1.22 1.16 1.04 1.03 1.05 1.04 1.05 0.97 0.96 0.90 0.94 1.01 1.08 1.10 1.09 1.02 0.93 0.95 0.97 0.92 0.80 0.77 0.79 0.80 0.88 1.09 1.27 1.54 1.92 2.11 2.40 2.56 2.40 2.31 2.36 2.42 2.43 2.64 2.14 1.60 1.41 1.18 1.11
1.25 1.28 1.18 1.16 1.17 1.15 1.11 0.95 0.93 0.89 0.96 1.01 1.07 1.08 1.07 1.01 1.00 0.98 1.00 1.00 0.89 0.85 0.84 0.84 0.83 0.95 1.14 1.27 1.56 1.90 2.17 2.34 2.42 2.49 2.55 2.62 2.55 2.70 2.97 2.51 1.80 1.42 1.18
1.38 1.39 1.38 1.35 1.39 1.41 1.41 1.21 1.09 0.98 1.01 1.06 1.17 1.16 1.03 0.93 0.99 0.96 0.89 0.96 0.96 0.97 1.02 0.98 0.96 0.98 1.04 1.19 1.45 1.71 1.96 2.20 2.23 2.30 2.18 2.18 2.20 2.33 2.74 2.95 2.59 1.98 1.50